Tanana, AK

2:34 PM AKST on February 24, 2017 (GMT -0900)
Calhoun Memorial

Weather History for PATA - October, 2011

Change the Weather History Date:

Thursday, October 20, 2011

  Actual Average Record
Temperature  
Mean Temperature 26 °F -  
Max Temperature 28 °F 25 °F 43 °F (2013)
Min Temperature 25 °F 10 °F -19 °F (1983)
Degree Days  
Heating Degree Days 38    
Moisture  
Dew Point 22 °F    
Average Humidity 81    
Maximum Humidity 92    
Minimum Humidity 72    
Precipitation  
Precipitation 0.00 in - - ()
Sea Level Pressure  
Sea Level Pressure 29.75 in    
Wind  
Wind Speed 4 mph (ENE)    
Max Wind Speed 10 mph    
Max Gust Speed -    
Visibility 10 miles    
Events      
Averages and records for this station are not official NWS values.
T = Trace of Precipitation, MM = Missing Value Source: NWS Daily Summary

Daily Weather History Graph

Daily Weather History Graph

Search for Another Location

Airport or City:

Trip Planner

Search our weather history database for the weather conditions in past years. The results will help you decide how hot, cold, wet, or windy it might be!

Date:

Astronomy

Oct. 20, 2011 Rise Set
Actual Time 9:17 AM AKDT 6:27 PM AKDT
Civil Twilight 8:26 AM AKDT 7:18 PM AKDT
Nautical Twilight 7:28 AM AKDT 8:16 PM AKDT
Astronomical Twilight 6:30 AM AKDT 9:13 PM AKDT
Moon No Moon Rise 5:02 PM AKDT (10/20)
Length of Visible Light 10h 52m
Length of Day
9h 09m
Last Quarter, 43% of the Moon is Illuminated
Oct 20
Last Quarter
Oct 26
New
Nov 2
First Quarter
Nov 10
Full
Nov 18
Last Quarter

Hourly Weather History & Observations

Time (AKDT) Temp. Windchill Dew Point Humidity Pressure Visibility Wind Dir Wind Speed Gust Speed Precip Events Conditions
12:52 AM 28.0 °F 21.7 °F 24.1 °F 85% 29.78 in 10.0 mi ENE 5.8 mph - N/A   Overcast
1:52 AM 28.0 °F 24.2 °F 24.1 °F 85% 29.78 in 10.0 mi East 3.5 mph - N/A   Overcast
2:52 AM 27.0 °F 20.5 °F 23.0 °F 85% 29.78 in 10.0 mi East 5.8 mph - N/A   Overcast
3:52 AM 27.0 °F 21.6 °F 23.0 °F 85% 29.78 in 10.0 mi East 4.6 mph - N/A   Overcast
4:52 AM 27.0 °F 23.0 °F 23.0 °F 85% 29.78 in 10.0 mi East 3.5 mph - N/A   Overcast
5:52 AM 26.1 °F - 23.0 °F 88% 29.77 in 10.0 mi Calm Calm - N/A   Overcast
6:52 AM 26.1 °F - 21.9 °F 84% 29.77 in 10.0 mi Calm Calm - N/A   Overcast
7:52 AM 25.0 °F 20.7 °F 23.0 °F 92% 29.76 in 10.0 mi North 3.5 mph - N/A   Overcast
8:52 AM 26.1 °F - 21.9 °F 84% 29.76 in 10.0 mi Calm Calm - N/A   Overcast
9:52 AM 26.1 °F - 21.9 °F 84% 29.76 in 10.0 mi Calm Calm - N/A   Overcast
10:52 AM 27.0 °F - 23.0 °F 85% 29.76 in 10.0 mi Calm Calm - N/A   Overcast
11:52 AM 28.0 °F - 21.9 °F 78% 29.76 in 10.0 mi Calm Calm - N/A   Overcast
12:52 PM 28.0 °F - 23.0 °F 81% 29.76 in 10.0 mi Calm Calm - N/A   Overcast
1:52 PM 28.0 °F 18.6 °F 21.9 °F 78% 29.77 in 10.0 mi East 10.4 mph - N/A   Overcast
2:52 PM 28.0 °F 19.3 °F 19.9 °F 72% 29.75 in 10.0 mi ENE 9.2 mph - N/A   Overcast
3:52 PM 27.0 °F 18.0 °F 19.0 °F 72% 29.74 in 10.0 mi ENE 9.2 mph - N/A   Overcast
4:52 PM 28.0 °F - 19.9 °F 72% 29.74 in 10.0 mi Calm Calm - N/A   Overcast
5:52 PM 28.0 °F 24.2 °F 21.0 °F 75% 29.73 in 10.0 mi NNW 3.5 mph - N/A   Overcast
6:52 PM 27.0 °F - 21.0 °F 78% 29.73 in 10.0 mi Calm Calm - N/A   Overcast
7:52 PM 27.0 °F 21.6 °F 19.9 °F 75% 29.73 in 10.0 mi NNE 4.6 mph - N/A   Overcast
8:52 PM 26.1 °F 19.4 °F 19.9 °F 78% 29.73 in 10.0 mi NE 5.8 mph - N/A   Overcast
9:52 PM 26.1 °F 20.5 °F 19.9 °F 78% 29.71 in 10.0 mi NE 4.6 mph - N/A   Overcast
10:52 PM 25.0 °F 20.7 °F 19.9 °F 81% 29.70 in 10.0 mi NE 3.5 mph - N/A   Overcast
11:52 PM 26.1 °F - 19.9 °F 78% 29.69 in 10.0 mi Calm Calm - N/A   Overcast